Location: Unspecified
(0.0000°N, 0.0000°E)
Time: 12:13:50
(UTC+00:00)

SL-12 DEB - Pass Details

Date: 06 May 2025
Orbit: 905 x 18020 km, 65.1° (Epoch: 09 July)

Event Time Altitude Azimuth Distance (km) Brightness Sun altitude
Rises 17:54:32 0° 341° (NNW) 21,459 ? 0.5°
Reaches altitude 10° 18:25:47 10° 346° (NNW) 22,101 ? -7.0°
Maximum altitude 20:51:20 83° 260° (W) 7,883 ? -41.4°
Enters shadow 21:09:31 36° 172° (S) 5,740 ? -45.6°
